User: anonymous
Location: Clinton NY
(43.0598°N, 75.3602°W)
Time: 20:39:29
(UTC-04:00)
Language:

Iridium 11 - Orbit

View from above orbital plane
View from above orbital plane
View from above satellite
View from above satellite

Ground track
Ground track

The orbit data is extracted from the following two-line orbital elements,

1 25578U 98074B   14109.32772646  .00000749  00000-0  26039-3 0  8393
2 25578 086.4005 018.3472 0002341 098.9486 040.4074 14.34216458811873
Epoch (UTC): 19 April 2014 07:51:55
Eccentricity: 0.0002341
inclination: 86.4005°
perigee height: 776 km
apogee height: 779 km
right ascension of ascending node: 18.3472°
argument of perigee: 98.9486°
revolutions per day: 14.34216458
mean anomaly at epoch: 40.4074°
orbit number at epoch: 81187

The dashed part of the orbit path shows where the satellite is in the earth's shadow,  

DLR